User: anonymous   Login
Location: *
(43.4667°N, 11.6833°E)
Time: 07:43:22
(UTC+00:00)
Language:

CZ-4 R/B - Orbit

View from above orbital plane
View from above orbital plane
View from above satellite
View from above satellite

Ground track
Ground track

The orbit data is extracted from the following two-line orbital elements,

1 28059U 03049C   19289.37566098 -.00000002  00000-0  11195-4 0  9997
2 28059  98.4858 198.0904 0050327 166.4646 193.7913 14.52574276847239
Epoch (UTC): 16 October 2019 09:00:57
Eccentricity: 0.0050327
inclination: 98.4858°
perigee height: 681 km
apogee height: 753 km
right ascension of ascending node: 198.0904°
argument of perigee: 166.4646°
revolutions per day: 14.52574276
mean anomaly at epoch: 193.7913°
orbit number at epoch: 84723

The dashed part of the orbit path shows where the satellite is in the earth's shadow,  

DLR